TimeEDT,TemperatureF,Dew PointF,Humidity,Sea Level PressureIn,VisibilityMPH,Wind Direction,Wind SpeedMPH,Gust SpeedMPH,PrecipitationIn,Events,Conditions,WindDirDegrees,DateUTC
12:04 AM,73.4,73.4,100,30.18,1.2,East,4.6,-,N/A,,Light Drizzle,90,2013-07-09 04:04:00
12:09 AM,73.4,73.4,100,30.17,1.0,East,4.6,-,N/A,Rain,Light Rain,90,2013-07-09 04:09:00
12:14 AM,73.4,73.4,100,30.17,1.0,East,4.6,-,N/A,,Clear,90,2013-07-09 04:14:00
12:19 AM,73.4,73.4,100,30.17,1.8,East,4.6,-,N/A,,Clear,100,2013-07-09 04:19:00
12:24 AM,73.4,73.4,100,30.17,3.0,East,5.8,-,N/A,,Clear,100,2013-07-09 04:24:00
12:58 AM,74.8,74.5,99,30.17,10.0,East,2.3,-,0.00,,Clear,80,2013-07-09 04:58:00
1:58 AM,72.7,72.5,99,30.16,10.0,East,4.6,-,N/A,,Clear,100,2013-07-09 05:58:00
2:58 AM,72.7,72.3,99,30.14,9.0,ESE,3.5,-,N/A,,Clear,120,2013-07-09 06:58:00
3:38 AM,71.6,71.6,100,30.12,2.5,ESE,3.5,-,N/A,,Clear,110,2013-07-09 07:38:00
3:43 AM,71.6,71.6,100,30.12,4.0,ESE,2.3,-,N/A,,Clear,110,2013-07-09 07:43:00
3:53 AM,71.6,71.6,100,30.12,2.0,NNW,1.2,-,N/A,,Clear,340,2013-07-09 07:53:00
3:58 AM,71.1,70.7,99,30.13,2.5,Calm,Calm,-,N/A,,Clear,0,2013-07-09 07:58:00
4:03 AM,69.8,69.8,100,30.12,5.0,Calm,Calm,-,N/A,,Clear,0,2013-07-09 08:03:00
4:28 AM,71.6,71.6,100,30.12,1.5,NE,2.3,-,N/A,,Clear,50,2013-07-09 08:28:00
4:38 AM,71.6,71.6,100,30.12,2.0,NE,2.3,-,N/A,,Clear,50,2013-07-09 08:38:00
4:43 AM,71.6,71.6,100,30.12,4.0,ENE,3.5,-,N/A,,Clear,60,2013-07-09 08:43:00
4:48 AM,71.6,71.6,100,30.12,2.5,ENE,3.5,-,N/A,,Clear,60,2013-07-09 08:48:00
4:53 AM,71.6,71.6,100,30.12,3.0,ENE,2.3,-,N/A,,Clear,60,2013-07-09 08:53:00
4:58 AM,71.6,71.6,100,30.13,4.0,Calm,Calm,-,N/A,,Clear,0,2013-07-09 08:58:00
5:53 AM,69.8,69.8,100,30.13,2.0,East,3.5,-,N/A,,Clear,80,2013-07-09 09:53:00
5:58 AM,70.7,70.7,100,30.14,1.0,East,4.6,-,N/A,,Clear,90,2013-07-09 09:58:00
6:03 AM,71.6,71.6,100,30.13,1.2,East,4.6,-,N/A,,Clear,80,2013-07-09 10:03:00
6:08 AM,71.6,71.6,100,30.13,1.0,ENE,4.6,-,N/A,,Clear,70,2013-07-09 10:08:00
6:13 AM,71.6,71.6,100,30.13,0.8,ENE,3.5,-,N/A,,Clear,60,2013-07-09 10:13:00
6:18 AM,73.4,73.4,100,30.13,1.2,NE,2.3,-,N/A,,Clear,50,2013-07-09 10:18:00
6:23 AM,73.4,73.4,100,30.13,3.0,NE,2.3,-,N/A,,Clear,50,2013-07-09 10:23:00
6:43 AM,71.6,71.6,100,30.14,2.0,NE,3.5,-,N/A,,Clear,40,2013-07-09 10:43:00
6:48 AM,71.6,71.6,100,30.14,3.0,NE,3.5,-,N/A,,Clear,40,2013-07-09 10:48:00
6:58 AM,71.4,71.4,100,30.15,1.0,ENE,3.5,-,N/A,,Clear,70,2013-07-09 10:58:00
7:03 AM,71.6,71.6,100,30.14,0.8,ENE,3.5,-,N/A,,Clear,70,2013-07-09 11:03:00
7:08 AM,73.4,73.4,100,30.14,3.0,NE,2.3,-,N/A,,Clear,50,2013-07-09 11:08:00
7:58 AM,77.0,77.0,100,30.16,10.0,Calm,Calm,-,N/A,,Clear,0,2013-07-09 11:58:00
8:58 AM,80.8,76.3,86,30.18,10.0,ENE,5.8,-,N/A,,Clear,70,2013-07-09 12:58:00
9:58 AM,83.3,72.9,71,30.18,10.0,NE,9.2,-,N/A,,Clear,40,2013-07-09 13:58:00
10:58 AM,85.1,73.6,68,30.19,10.0,ENE,9.2,-,N/A,,Scattered Clouds,70,2013-07-09 14:58:00
11:38 AM,84.2,73.4,70,30.18,10.0,NE,11.5,-,N/A,,Mostly Cloudy,40,2013-07-09 15:38:00
11:43 AM,84.2,73.4,70,30.18,10.0,NE,11.5,-,N/A,,Scattered Clouds,40,2013-07-09 15:43:00
11:58 AM,85.6,74.1,68,30.19,10.0,NE,9.2,18.4,N/A,,Scattered Clouds,50,2013-07-09 15:58:00
12:58 PM,86.5,74.8,68,30.19,10.0,NE,10.4,16.1,N/A,,Mostly Cloudy,50,2013-07-09 16:58:00
1:03 PM,86.0,75.2,70,30.18,10.0,ENE,10.4,-,N/A,,Mostly Cloudy,70,2013-07-09 17:03:00
1:13 PM,87.8,73.4,62,30.18,10.0,ENE,10.4,-,N/A,,Mostly Cloudy,60,2013-07-09 17:13:00
1:53 PM,84.2,73.4,70,30.16,10.0,NE,10.4,-,N/A,,Light Drizzle,50,2013-07-09 17:53:00
1:58 PM,84.6,73.8,70,30.17,10.0,ENE,9.2,-,0.00,Rain,Light Rain,60,2013-07-09 17:58:00
2:08 PM,82.4,71.6,70,30.16,10.0,ENE,8.1,-,N/A,,Mostly Cloudy,70,2013-07-09 18:08:00
2:58 PM,86.7,73.8,65,30.16,10.0,East,10.4,-,0.00,,Mostly Cloudy,80,2013-07-09 18:58:00
3:21 PM,86.0,75.2,70,30.14,10.0,ENE,10.4,-,N/A,,Light Drizzle,70,2013-07-09 19:21:00
3:31 PM,86.0,75.2,70,30.14,10.0,East,10.4,-,N/A,,Partly Cloudy,80,2013-07-09 19:31:00
3:58 PM,85.6,75.0,70,30.13,10.0,East,8.1,-,0.00,,Scattered Clouds,80,2013-07-09 19:58:00
4:58 PM,83.5,70.9,66,30.11,10.0,East,9.2,-,N/A,,Scattered Clouds,80,2013-07-09 20:58:00
5:58 PM,84.7,70.2,61,30.11,10.0,East,6.9,-,N/A,,Clear,90,2013-07-09 21:58:00
6:58 PM,83.5,72.5,69,30.11,10.0,ENE,6.9,-,N/A,,Clear,70,2013-07-09 22:58:00
7:58 PM,80.6,73.0,78,30.11,10.0,ENE,5.8,-,N/A,,Clear,70,2013-07-09 23:58:00
8:58 PM,77.0,73.8,90,30.11,10.0,NNE,4.6,-,N/A,,Partly Cloudy,30,2013-07-10 00:58:00
9:58 PM,75.6,74.3,96,30.12,10.0,ENE,3.5,-,N/A,,Clear,60,2013-07-10 01:58:00
10:58 PM,74.7,73.4,96,30.12,10.0,ENE,4.6,-,N/A,,Clear,60,2013-07-10 02:58:00
11:58 PM,73.2,72.7,98,30.12,10.0,NE,4.6,-,N/A,,Clear,40,2013-07-10 03:58:00